(278093) = 2007 BP20

Discovered at Anderson Mesa on 2007-01-23 by LONEOS.

Orbit

Orbit type: Main Belt

Note: WebGL enabled browser required.

epoch2024-03-31.0
epoch JD2460400.5
perihelion date2024-01-14.92382
perihelion JD2460324.42382
argument of perihelion (°)134.14429
ascending node (°)321.44903
inclination (°)11.28658
eccentricity0.2536770
perihelion distance (AU)1.9838799
Tisserand w.r.t. Jupiter3.3
ΔV w.r.t. Earth (km/sec)9.5
semimajor axis (AU)2.6582056
mean anomaly (°)17.30094
mean daily motion (°/day)0.22741600
aphelion distance (AU)3.333
period (years)4.33
P-vector [x]-0.10611557
P-vector [y]0.84729082
P-vector [z]0.52042074
Q-vector [x]-0.98684456
Q-vector [y]-0.02553847
Q-vector [z]-0.15964209
absolute magnitude16.44
phase slope0.15
uncertainty0
referenceMPEC 2024-E179
observations used495
oppositions11
arc length (days)8235
first opposition used2001
last opposition used2024
residual rms (arc-secs)0.72
perturbers coarse indicatorM-v
perturbers precise indicator003Ek
first observation date used2001-08-26.0
last observation date used2024-03-13.0
computer nameMPCLINUX
JD of orbit computation2456966.795501
perihelion JD uncertainty (days)1.0140E-04
argument of perihelion uncertainty (°)4.3987E-05
ascending node uncertainty (°)3.6445E-05
inclination uncertainty (°)1.1359E-05
eccentricity uncertainty 6.8321E-08
perihelion distance uncertainty (AU)1.9295E-07
Minimum Orbit Intersection Distances (in AU)
for orbit epoch: 2460400.5, reference: E2024-GF4
Mercury1.67266
Venus1.27211
Earth1.01865
Mars0.39291
Jupiter1.89703
Saturn6.77266
Uranus15.8875
Neptune27.0085

Observations

503 total observations over interval: 2001 08 26.45172 – 2024 03 13.121814
These data are available for download (format description).

Date (UT) J2000 RA J2000 Dec Magn Location Ref
2001 08 26.45172 01 07 22.19 +19 21 54.0 19.6 R 699 – Lowell Observatory-LONEOS MPS 201567
2001 08 26.45959 01 07 22.05 +19 21 58.2   699 – Lowell Observatory-LONEOS MPS 201567
2001 08 26.46748 01 07 21.91 +19 22 00.8   699 – Lowell Observatory-LONEOS MPS 201567
2001 08 26.47536 01 07 21.87 +19 22 04.1   699 – Lowell Observatory-LONEOS MPS 201567
2001 09 25.26196 00 49 32.79 +21 21 03.5 19.6   704 – Lincoln Laboratory ETS, New Mexico MPS 213860
2001 09 25.27696 00 49 31.96 +21 21 04.0 20.0   704 – Lincoln Laboratory ETS, New Mexico MPS 213860
2001 09 25.29197 00 49 30.98 +21 21 05.2 20.0   704 – Lincoln Laboratory ETS, New Mexico MPS 213860
2001 09 25.30696 00 49 30.12 +21 21 06.1 20.0   704 – Lincoln Laboratory ETS, New Mexico MPS 213860
2001 09 25.32194 00 49 29.23 +21 21 06.9 19.9   704 – Lincoln Laboratory ETS, New Mexico MPS 213860
2001 10 15.41385 00 28 48.13 +20 52 19.8 20.3   608 – Haleakala-AMOS MPS 201567
2001 10 15.42403 00 28 47.41 +20 52 18.0 20.1   608 – Haleakala-AMOS MPS 201567
2001 10 15.43456 00 28 46.80 +20 52 16.0 21.0   608 – Haleakala-AMOS MPS 201567
2005 08 30.19332 22 41 06.84 -02 27 15.7 20.4 V 691 – Steward Observatory, Kitt Peak-Spacewatch MPS 201567
2005 08 30.21066 22 41 05.82 -02 27 17.7 20.4 V 691 – Steward Observatory, Kitt Peak-Spacewatch MPS 201567
2005 08 30.23140 22 41 04.57 -02 27 20.1 20.6 V 691 – Steward Observatory, Kitt Peak-Spacewatch MPS 201567
2006 12 27.39811 10 52 55.30 +09 03 53.4 20.3 V G96 – Mt. Lemmon Survey MPS 200444
2006 12 27.40315 10 52 55.41 +09 03 51.5 20.2 V G96 – Mt. Lemmon Survey MPS 200444
2006 12 27.40831 10 52 55.52 +09 03 48.5 20.3 V G96 – Mt. Lemmon Survey MPS 200444
2006 12 27.41352 10 52 55.63 +09 03 46.2 20.1 V G96 – Mt. Lemmon Survey MPS 200444
2007 01 23.39317 10 50 44.83 +06 14 19.7 19.0 R 699 – Lowell Observatory-LONEOS MPS 197178
2007 01 23.41880 10 50 43.95 +06 14 13.2   699 – Lowell Observatory-LONEOS MPS 197178
2007 01 23.44443 10 50 42.97 +06 14 07.1   699 – Lowell Observatory-LONEOS MPS 197178
2007 01 23.47005 10 50 42.10 +06 13 59.6   699 – Lowell Observatory-LONEOS MPS 197178
2007 01 24.43394 10 50 09.02 +06 09 54.1 19.4 V 703 – Catalina Sky Survey MPS 197178
2007 01 24.44099 10 50 08.80 +06 09 52.8 19.3 V 703 – Catalina Sky Survey MPS 197178
2007 01 24.44804 10 50 08.48 +06 09 50.0 19.1 V 703 – Catalina Sky Survey MPS 197178
2007 01 24.45513 10 50 08.26 +06 09 48.9 19.4 V 703 – Catalina Sky Survey MPS 197178
2007 02 08.42632 10 38 04.90 +05 23 18.6 18.9 R 644 – Palomar Mountain/NEAT MPS 199532
2007 02 08.44794 10 38 03.56 +05 23 15.9 18.9 R 644 – Palomar Mountain/NEAT MPS 199532
2007 02 08.46829 10 38 02.32 +05 23 13.3 19.1 R 644 – Palomar Mountain/NEAT MPS 199532
2007 02 10.29207 10 36 12.78 +05 19 36.7 18.9 V 703 – Catalina Sky Survey MPS 199532
2007 02 10.29850 10 36 12.31 +05 19 36.8 18.9 V 703 – Catalina Sky Survey MPS 199532
2007 02 10.30491 10 36 11.98 +05 19 35.2 19.1 V 703 – Catalina Sky Survey MPS 199532
2007 02 10.31134 10 36 11.52 +05 19 34.7 19.2 V 703 – Catalina Sky Survey MPS 199532
2007 02 15.44900 10 30 45.92 +05 11 28.6 18.6 R 644 – Palomar Mountain/NEAT MPS 199532
2007 02 15.47059 10 30 44.47 +05 11 27.0 18.9 R 644 – Palomar Mountain/NEAT MPS 199532
2007 02 15.49096 10 30 43.09 +05 11 25.2 19.2 R 644 – Palomar Mountain/NEAT MPS 199532
2007 02 16.42646 10 29 42.16 +05 10 15.3 18.5 R 644 – Palomar Mountain/NEAT MPS 200444
2007 02 16.44794 10 29 40.71 +05 10 13.8 18.9 R 644 – Palomar Mountain/NEAT MPS 200444
2007 02 16.46821 10 29 39.35 +05 10 12.1 18.6 R 644 – Palomar Mountain/NEAT MPS 200444
2007 02 17.33392 10 28 42.85 +05 09 12.3 18.8 V 703 – Catalina Sky Survey MPS 200444
2007 02 17.34171 10 28 42.24 +05 09 11.5 18.8 V 703 – Catalina Sky Survey MPS 200444
2007 02 17.34946 10 28 41.70 +05 09 10.9 18.7 V 703 – Catalina Sky Survey MPS 200444
2007 02 17.35720 10 28 41.12 +05 09 10.9 18.9 V 703 – Catalina Sky Survey MPS 200444
2007 02 17.48602 10 28 32.44 +05 09 01.7 19.7 R 644 – Palomar Mountain/NEAT MPS 200444
2007 02 17.50633 10 28 31.06 +05 09 00.3 18.5 R 644 – Palomar Mountain/NEAT MPS 200444
2007 02 17.52905 10 28 29.56 +05 08 58.8 19.3 R 644 – Palomar Mountain/NEAT MPS 200444
2007 02 19.35242 10 26 29.32 +05 07 06.9 18.7 V G96 – Mt. Lemmon Survey MPS 200444
2007 02 19.35572 10 26 29.11 +05 07 06.9 18.6 V G96 – Mt. Lemmon Survey MPS 200444
2007 02 19.35897 10 26 28.86 +05 07 06.7 18.8 V G96 – Mt. Lemmon Survey MPS 200444
2007 02 19.36224 10 26 28.64 +05 07 06.6 18.8 V G96 – Mt. Lemmon Survey MPS 200444
2007 02 21.28465 10 24 21.37 +05 05 26.3 18.5   704 – Lincoln Laboratory ETS, New Mexico MPS 200444
2007 02 21.29655 10 24 20.58 +05 05 25.3 18.9   704 – Lincoln Laboratory ETS, New Mexico MPS 200444
2007 02 21.30844 10 24 19.71 +05 05 25.1 18.7   704 – Lincoln Laboratory ETS, New Mexico MPS 200444
2007 02 21.32034 10 24 18.96 +05 05 25.1 18.9   704 – Lincoln Laboratory ETS, New Mexico MPS 200444
2007 02 21.33225 10 24 18.10 +05 05 23.6 18.3   704 – Lincoln Laboratory ETS, New Mexico MPS 200444
2007 02 22.27482 10 23 15.77 +05 04 39.3 18.4 R 699 – Lowell Observatory-LONEOS MPS 200444
2007 02 22.29670 10 23 14.19 +05 04 39.3   699 – Lowell Observatory-LONEOS MPS 200444
2007 02 22.31864 10 23 12.72 +05 04 38.7   699 – Lowell Observatory-LONEOS MPS 200444
2007 02 22.32479 10 23 12.38 +05 04 37.6 18.7   704 – Lincoln Laboratory ETS, New Mexico MPS 200444
2007 02 22.33648 10 23 11.58 +05 04 37.7 18.9   704 – Lincoln Laboratory ETS, New Mexico MPS 200444
2007 02 22.34060 10 23 11.22 +05 04 37.6   699 – Lowell Observatory-LONEOS MPS 200444
2007 02 22.34806 10 23 10.78 +05 04 38.1 19.2   704 – Lincoln Laboratory ETS, New Mexico MPS 200444
2007 02 22.35963 10 23 09.93 +05 04 37.5 18.4   704 – Lincoln Laboratory ETS, New Mexico MPS 200444
2007 02 22.37119 10 23 09.11 +05 04 33.9 19.0   704 – Lincoln Laboratory ETS, New Mexico MPS 200444
2007 02 26.24098 10 18 55.76 +05 02 13.2 18.3 V 703 – Catalina Sky Survey MPS 201567
2007 02 26.25174 10 18 55.04 +05 02 13.3 18.1 V 703 – Catalina Sky Survey MPS 201567
2007 02 26.26245 10 18 54.32 +05 02 12.9 18.3 V 703 – Catalina Sky Survey MPS 201567
2007 02 26.27315 10 18 53.64 +05 02 12.9 18.7 V 703 – Catalina Sky Survey MPS 201567
2007 03 09.35375 10 07 47.74 +04 58 23.8 18.5 V 703 – Catalina Sky Survey MPS 202375
2007 03 09.36127 10 07 47.49 +04 58 21.3 19.1 V 703 – Catalina Sky Survey MPS 202375
2007 03 09.36883 10 07 47.10 +04 58 20.3 19.4 V 703 – Catalina Sky Survey MPS 202375
2007 03 09.37635 10 07 46.63 +04 58 21.3 18.5 V 703 – Catalina Sky Survey MPS 202375
2007 03 13.22182 10 04 30.54 +04 57 13.6 18.8 R 699 – Lowell Observatory-LONEOS MPS 203151
2007 03 13.24377 10 04 29.41 +04 57 14.0   699 – Lowell Observatory-LONEOS MPS 203151
2007 03 13.26570 10 04 28.26 +04 57 11.7   699 – Lowell Observatory-LONEOS MPS 203151
2007 03 13.28764 10 04 27.14 +04 57 14.0   699 – Lowell Observatory-LONEOS MPS 203151
2007 03 15.22144 10 02 57.33 +04 56 34.4 18.9 V 703 – Catalina Sky Survey MPS 203151
2007 03 15.23079 10 02 56.90 +04 56 34.8 19.2 V 703 – Catalina Sky Survey MPS 203151
2007 03 15.24012 10 02 56.47 +04 56 34.0 19.4 V 703 – Catalina Sky Survey MPS 203151
2007 03 15.24946 10 02 55.96 +04 56 33.3 18.8 V 703 – Catalina Sky Survey MPS 203151
2010 11 28.32254 05 44 08.86 +42 41 48.7 19.3   704 – Lincoln Laboratory ETS, New Mexico MPS 359058
2010 11 28.33556 05 44 07.99 +42 41 49.6 19.3   704 – Lincoln Laboratory ETS, New Mexico MPS 359058
2010 11 28.34849 05 44 07.33 +42 41 50.3 19.5   704 – Lincoln Laboratory ETS, New Mexico MPS 359058
2010 11 28.36199 05 44 06.51 +42 41 50.9 19.4   704 – Lincoln Laboratory ETS, New Mexico MPS 359058
2011 04 28.14928 07 16 11.49 +23 37 07.8 21.3 V G96 – Mt. Lemmon Survey MPS 380060
2011 04 28.14986 07 16 11.56 +23 37 07.5 22.0 V G96 – Mt. Lemmon Survey MPS 380060
2011 04 28.15454 07 16 12.14 +23 37 05.3 20.9 V G96 – Mt. Lemmon Survey MPS 380060
2011 04 28.15510 07 16 12.18 +23 37 04.8 21.0 V G96 – Mt. Lemmon Survey MPS 380060
2011 04 28.16499 07 16 13.33 +23 37 00.3 20.7 V G96 – Mt. Lemmon Survey MPS 380060
2011 04 28.16554 07 16 13.44 +23 36 59.7 20.9 V G96 – Mt. Lemmon Survey MPS 380060
2011 04 28.17016 07 16 13.98 +23 36 57.7 21.1 V G96 – Mt. Lemmon Survey MPS 380060
